Location: Piedmont
(45.8748°N, 74.1254°W)
Time: 21:50:39
(UTC+00:00)

X-37B - Pass Details

Date: 08 December 2021
Orbit: 334 x 337 km, 45.0° (Epoch: 11 January)

Event Time Altitude Azimuth Distance (km) Brightness Sun altitude
Rises 23:39:44 0° 252° (WSW) 2,100 5.6 -24.8°
Reaches altitude 10° 23:41:44 10° 248° (WSW) 1,265 4.1 -25.2°
Enters shadow 23:42:34 17° 244° (WSW) 937 3.3 -25.3°
